When you browse on this site, cookies collect data to enhance your experience and personalize the content and advertising you see.
Visit our Privacy Policy to learn more. By continuing to use the site, you agree to this use of cookies and data.

Hourly Weather Salgotarjan

Today, 5 August, Wednesday

Time Temperature Precipitation Wind Pressure Humidity
00:00 +19°C° 1.3 mm 1 mps 729 mmHg 95%
01:00 +19°C° 0 mm 1 mps 729 mmHg 97%
02:00 +19°C° 0.8 mm 1 mps 729 mmHg 96%
03:00 +19°C° 0.8 mm 1 mps 729 mmHg 96%
04:00 +17°C° 0.8 mm 0 mps 729 mmHg 96%
05:00 +19°C° 0.1 mm 1 mps 729 mmHg 94%
06:00 +20°C° 0.1 mm 1 mps 729 mmHg 92%
07:00 +19°C° 0.1 mm 2 mps 730 mmHg 89%
08:00 +21°C° 0 mm 3 mps 730 mmHg 82%
09:00 +22°C° 0 mm 3 mps 731 mmHg 75%
10:00 +23°C° 0 mm 4 mps 731 mmHg 68%
11:00 +25°C° 0 mm 4 mps 731 mmHg 66%
12:00 +26°C° 0 mm 4 mps 731 mmHg 63%
13:00 +27°C° 0 mm 3 mps 731 mmHg 60%
14:00 +26°C° 0 mm 3 mps 731 mmHg 61%
15:00 +26°C° 0 mm 3 mps 731 mmHg 61%
16:00 +26°C° 0 mm 3 mps 731 mmHg 62%
17:00 +24°C° 0 mm 3 mps 731 mmHg 66%
18:00 +22°C° 0 mm 3 mps 731 mmHg 71%
19:00 +20°C° 0 mm 3 mps 731 mmHg 75%
20:00 +20°C° 0 mm 3 mps 731 mmHg 76%
21:00 +19°C° 0 mm 3 mps 731 mmHg 77%
22:00 +19°C° 0 mm 3 mps 732 mmHg 79%
23:00 +18°C° 0 mm 3 mps 732 mmHg 80%

Tomorrow, 6 August, Thursday

Time Temperature Precipitation Wind Pressure Humidity
00:00 +18°C° 0 mm 3 mps 732 mmHg 82%
01:00 +18°C° 0 mm 2 mps 732 mmHg 83%
02:00 +18°C° 0 mm 2 mps 732 mmHg 85%
03:00 +17°C° 0 mm 2 mps 732 mmHg 86%
04:00 +17°C° 0 mm 2 mps 732 mmHg 87%
05:00 +19°C° 0 mm 2 mps 732 mmHg 83%
06:00 +20°C° 0 mm 2 mps 732 mmHg 79%
07:00 +21°C° 0 mm 3 mps 733 mmHg 75%
08:00 +24°C° 0 mm 3 mps 733 mmHg 68%
09:00 +26°C° 0 mm 4 mps 734 mmHg 60%
10:00 +28°C° 0 mm 4 mps 734 mmHg 53%
11:00 +28°C° 0 mm 4 mps 734 mmHg 49%
12:00 +29°C° 0 mm 4 mps 734 mmHg 46%
13:00 +30°C° 0 mm 5 mps 734 mmHg 43%
14:00 +30°C° 0 mm 4 mps 734 mmHg 44%
15:00 +30°C° 0 mm 4 mps 734 mmHg 46%
16:00 +29°C° 0 mm 3 mps 734 mmHg 48%
17:00 +27°C° 0 mm 3 mps 733 mmHg 54%
18:00 +26°C° 0 mm 2 mps 733 mmHg 60%
19:00 +24°C° 0 mm 1 mps 733 mmHg 66%
20:00 +23°C° 0 mm 1 mps 734 mmHg 68%
21:00 +21°C° 0 mm 2 mps 734 mmHg 70%
22:00 +20°C° 0 mm 2 mps 734 mmHg 72%
23:00 +20°C° 0 mm 2 mps 734 mmHg 74%

Day after tomorrow, 7 August, Friday

Time Temperature Precipitation Wind Pressure Humidity
00:00 +20°C° 0 mm 2 mps 734 mmHg 76%
01:00 +19°C° 0 mm 2 mps 734 mmHg 79%
02:00 +19°C° 0 mm 2 mps 734 mmHg 79%
03:00 +19°C° 0 mm 2 mps 734 mmHg 80%
04:00 +18°C° 0 mm 2 mps 734 mmHg 80%
05:00 +20°C° 0 mm 2 mps 735 mmHg 77%
06:00 +21°C° 0 mm 2 mps 735 mmHg 73%
07:00 +23°C° 0 mm 2 mps 735 mmHg 70%
08:00 +25°C° 0 mm 2 mps 735 mmHg 63%
09:00 +27°C° 0 mm 2 mps 736 mmHg 56%
10:00 +29°C° 0 mm 3 mps 736 mmHg 50%
11:00 +29°C° 0 mm 2 mps 736 mmHg 48%
12:00 +30°C° 0 mm 2 mps 735 mmHg 45%
13:00 +31°C° 0 mm 2 mps 735 mmHg 43%
14:00 +30°C° 0 mm 2 mps 735 mmHg 44%
15:00 +30°C° 0 mm 2 mps 735 mmHg 46%
16:00 +30°C° 0 mm 2 mps 734 mmHg 48%
17:00 +28°C° 0 mm 2 mps 734 mmHg 54%
18:00 +26°C° 0 mm 1 mps 734 mmHg 60%
19:00 +24°C° 0 mm 1 mps 734 mmHg 66%
20:00 +24°C° 0 mm 1 mps 734 mmHg 68%
21:00 +23°C° 0 mm 1 mps 734 mmHg 70%
22:00 +21°C° 0 mm 2 mps 734 mmHg 72%
23:00 +20°C° 0 mm 2 mps 734 mmHg 74%

8 August, Saturday

Time Temperature Precipitation Wind Pressure Humidity
00:00 +21°C° 0 mm 1 mps 734 mmHg 77%
01:00 +20°C° 0 mm 1 mps 734 mmHg 79%
02:00 +20°C° 0 mm 1 mps 734 mmHg 80%
03:00 +20°C° 0 mm 1 mps 734 mmHg 82%
04:00 +20°C° 0 mm 1 mps 734 mmHg 83%
05:00 +21°C° 0 mm 1 mps 734 mmHg 79%
06:00 +22°C° 0 mm 1 mps 734 mmHg 75%
07:00 +24°C° 0 mm 1 mps 734 mmHg 71%
08:00 +25°C° 0 mm 1 mps 734 mmHg 65%
09:00 +27°C° 0 mm 1 mps 735 mmHg 58%
10:00 +29°C° 0 mm 1 mps 735 mmHg 52%
11:00 +30°C° 0 mm 1 mps 734 mmHg 49%
12:00 +31°C° 0 mm 1 mps 734 mmHg 47%
13:00 +32°C° 0 mm 1 mps 734 mmHg 45%
14:00 +32°C° 0 mm 1 mps 734 mmHg 44%
15:00 +31°C° 0 mm 1 mps 733 mmHg 44%
16:00 +29°C° 0 mm 0 mps 733 mmHg 44%
17:00 +27°C° 0 mm 0 mps 733 mmHg 50%
18:00 +25°C° 0 mm 0 mps 733 mmHg 57%
19:00 +23°C° 0 mm 0 mps 732 mmHg 64%
20:00 +22°C° 0.3 mm 0 mps 732 mmHg 67%
21:00 +23°C° 0.3 mm 1 mps 732 mmHg 70%
22:00 +22°C° 0.3 mm 1 mps 733 mmHg 73%
23:00 +22°C° 0.3 mm 1 mps 732 mmHg 76%

9 August, Sunday

Time Temperature Precipitation Wind Pressure Humidity
00:00 +21°C° 0.3 mm 1 mps 732 mmHg 80%
01:00 +21°C° 0.3 mm 1 mps 732 mmHg 83%
02:00 +20°C° 0 mm 1 mps 732 mmHg 85%
03:00 +20°C° 0 mm 1 mps 732 mmHg 87%
04:00 +19°C° 0 mm 1 mps 731 mmHg 89%
05:00 +20°C° 0 mm 1 mps 732 mmHg 86%
06:00 +20°C° 0 mm 2 mps 732 mmHg 83%
07:00 +21°C° 0 mm 2 mps 732 mmHg 80%
08:00 +24°C° 0 mm 2 mps 732 mmHg 72%
09:00 +26°C° 0 mm 2 mps 732 mmHg 64%
10:00 +27°C° 0 mm 2 mps 733 mmHg 56%
11:00 +28°C° 0 mm 2 mps 732 mmHg 53%
12:00 +29°C° 0 mm 2 mps 732 mmHg 50%
13:00 +30°C° 0 mm 2 mps 732 mmHg 47%
14:00 +30°C° 0 mm 2 mps 732 mmHg 47%
15:00 +30°C° 0 mm 1 mps 731 mmHg 48%
16:00 +30°C° 0 mm 1 mps 731 mmHg 49%
17:00 +28°C° 0 mm 1 mps 731 mmHg 56%
18:00 +26°C° 0 mm 1 mps 731 mmHg 63%
19:00 +22°C° 0 mm 0 mps 731 mmHg 70%
20:00 +23°C° 0.1 mm 1 mps 731 mmHg 73%
21:00 +22°C° 0.1 mm 1 mps 731 mmHg 76%
22:00 +22°C° 0.1 mm 1 mps 731 mmHg 78%
23:00 +21°C° 0.1 mm 1 mps 731 mmHg 81%

10 August, Monday

Time Temperature Precipitation Wind Pressure Humidity
00:00 +21°C° 0.1 mm 1 mps 731 mmHg 83%
01:00 +20°C° 0.1 mm 1 mps 731 mmHg 85%
02:00 +20°C° 0.3 mm 1 mps 731 mmHg 86%
03:00 +19°C° 0.3 mm 1 mps 731 mmHg 88%
04:00 +19°C° 0.3 mm 1 mps 731 mmHg 89%
05:00 +20°C° 0.3 mm 1 mps 731 mmHg 86%
06:00 +21°C° 0.3 mm 1 mps 731 mmHg 83%
07:00 +22°C° 0.3 mm 1 mps 732 mmHg 80%
08:00 +24°C° 0 mm 1 mps 732 mmHg 71%
09:00 +26°C° 0 mm 1 mps 732 mmHg 63%
10:00 +28°C° 0 mm 1 mps 732 mmHg 54%
11:00 +29°C° 0.1 mm 1 mps 732 mmHg 51%
12:00 +30°C° 0.1 mm 1 mps 732 mmHg 48%
13:00 +30°C° 0.1 mm 1 mps 731 mmHg 45%
14:00 +30°C° 0 mm 1 mps 731 mmHg 47%
15:00 +29°C° 0 mm 1 mps 731 mmHg 48%
16:00 +29°C° 0 mm 1 mps 731 mmHg 50%
17:00 +27°C° 0.1 mm 2 mps 731 mmHg 57%
18:00 +25°C° 0.1 mm 2 mps 731 mmHg 64%
19:00 +24°C° 0.1 mm 2 mps 731 mmHg 70%
20:00 +23°C° 0 mm 2 mps 731 mmHg 73%
21:00 +21°C° 0 mm 2 mps 731 mmHg 76%
22:00 +21°C° 0 mm 1 mps 731 mmHg 78%
23:00 +20°C° 0 mm 1 mps 731 mmHg 79%
Show more